Location: Middelsbur
(53.6609°N, 7.5020°E)
Time: 13:24:08
(UTC+00:00)

Terra - Pass Details

Date: 06 July 2020
Orbit: 701 x 703 km, 98.2° (Epoch: 07 August)

Event Time Altitude Azimuth Distance (km) Brightness Sun altitude
Exits shadow 21:14:52 - 166° (SSE) 2,281 3.9 -8.0°
Reaches altitude 10° 21:15:09 10° 166° (SSE) 2,169 3.7 -8.0°
Maximum altitude 21:19:55 84° 255° (WSW) 716 1.9 -8.4°
Drops below altitude 10° 21:24:43 10° 344° (NNW) 2,185 5.9 -8.7°
Sets 21:26:59 0° 345° (NNW) 3,108 7.0 -8.9°
